Location: Chandler
(33.3060°N, 111.8410°W)
Time: 15:28:11
(UTC-07:00)

Amateur Radio Satellites - All Passes

Search period start: 01 August 2014 14:58
Search period end: 02 August 2014 14:58
Location: Chandler, 33.3060°N, 111.8410°W

Satellite Date Start Highest point End Downlink Frequencies (MHz)
Time Altitude Azimuth
AO-7 01 Aug 15:22:29 15:30:25 50° 67° (ENE) 15:38:22 29.400 - 29.500 MHz
JAS-1B 01 Aug 15:47:28 15:54:55 30° 268° (W) 16:03:06 435.800 - 435.900 CW/SSB
Saudisat 1A 01 Aug 15:47:46 15:52:11 79° 242° (WSW) 15:56:33 436.775 MHz
OPAL 01 Aug 15:47:55 15:52:06 25° 98° (E) 15:56:17 ?
TMSAT-1 01 Aug 16:08:28 16:11:47 17° 266° (W) 16:15:06 436.925 FM
Uosat F 01 Aug 16:16:03 16:21:03 63° 258° (WSW) 16:26:03 435.120 FM
JAS-2 01 Aug 16:42:57 16:48:47 24° 66° (ENE) 16:54:20 435.800 - 435.900 CW/SSB, 435.910 FM
KITSAT 1 01 Aug 16:54:37 16:58:23 14° 259° (W) 17:02:08 435.175 FM
AO-7 01 Aug 17:16:11 17:23:18 31° 262° (W) 17:30:30 29.400 - 29.500 MHz
OPAL 01 Aug 17:26:26 17:30:55 32° 292° (WNW) 17:35:27 ?
Hamsat 01 Aug 17:38:33 17:42:41 68° 76° (ENE) 17:46:51 145.90 MHz
STRAND 1 01 Aug 18:17:59 18:21:46 21° 95° (E) 18:25:31 ?
JAS-2 01 Aug 18:25:35 18:33:18 62° 259° (W) 18:40:32 435.800 - 435.900 CW/SSB, 435.910 FM
SO-67 01 Aug 18:29:06 18:32:10 31° 74° (ENE) 18:35:16 435.3500 MHz FM
MaSat-1 01 Aug 18:44:12 18:45:33 11° 98° (E) 18:46:56 437.345 MHz
HO-68 01 Aug 19:22:44 19:27:40 21° 61° (ENE) 19:32:36 435.675 MHz FM
RS-15 01 Aug 19:23:24 19:30:10 18° 32° (NNE) 19:37:01 29.354 - 29.394 USB, Beacon 29.352 USB
SO-50 01 Aug 19:43:04 19:47:07 27° 54° (NE) 19:51:13 436.795 FM
STRAND 1 01 Aug 19:56:21 20:00:59 36° 289° (WNW) 20:05:36 ?
SO-67 01 Aug 20:04:45 20:05:19 10° 267° (W) 20:05:52 435.3500 MHz FM
UKube-1 01 Aug 20:12:59 20:16:14 21° 69° (ENE) 20:19:30 145.840 MHz, 145.915 MHz
MaSat-1 01 Aug 20:18:13 20:22:05 46° 297° (WNW) 20:26:35 437.345 MHz
Oscar 11 01 Aug 20:53:04 20:56:45 28° 72° (ENE) 21:00:26 145.825 FM, Beacon 2401.500 USB
HO-68 01 Aug 21:07:35 21:14:41 67° 257° (WSW) 21:21:49 435.675 MHz FM
UOSAT-12 01 Aug 21:21:12 21:24:38 20° 51° (NE) 21:28:01 437.025 FM, 437.400 FM
ISS 01 Aug 21:21:16 21:24:34 70° 317° (NW) 21:27:54 145.800 FM
SO-50 01 Aug 21:23:29 21:27:38 29° 248° (WSW) 21:31:48 436.795 FM
FUNcube-1 01 Aug 21:26:36 21:30:02 24° 71° (ENE) 21:33:25 145.950 - 145.970 MHz USB
RS-15 01 Aug 21:34:13 21:45:14 64° 58° (ENE) 21:56:38 29.354 - 29.394 USB, Beacon 29.352 USB
Oscar 10/S400 01 Aug 21:37:27 21:58:03 72° 164° (SSE) 07:08:53 145.825 - 145.975 CW/USB, Beacon 145.810 USB
UKube-1 01 Aug 21:48:31 21:52:15 27° 262° (W) 21:56:00 145.840 MHz, 145.915 MHz
PCSat 01 Aug 21:57:00 21:59:14 13° 103° (ESE) 22:01:28 145.825 MHz
Oscar 11 01 Aug 22:29:51 22:32:54 19° 265° (W) 22:35:58 145.825 FM, Beacon 2401.500 USB
UOSAT-12 01 Aug 23:00:31 23:04:56 41° 247° (WSW) 23:09:17 437.025 FM, 437.400 FM
FUNcube-1 01 Aug 23:02:58 23:06:19 22° 264° (W) 23:09:39 145.950 - 145.970 MHz USB
Sapphire 01 Aug 23:03:48 23:09:03 56° 112° (ESE) 23:14:21 437.095 MHz 1200 baud AX-25 AFSK
PCSat 01 Aug 23:36:38 23:42:00 66° 297° (WNW) 23:47:24 145.825 MHz
RS-15 01 Aug 23:47:38 23:56:49 31° 255° (WSW) 00:06:22 29.354 - 29.394 USB, Beacon 29.352 USB
Sapphire 02 Aug 00:49:13 00:52:49 18° 308° (NW) 00:56:27 437.095 MHz 1200 baud AX-25 AFSK
PANSAT 02 Aug 01:03:49 01:05:46 13° 158° (SSE) 01:07:43 not established
Oscar 19 02 Aug 01:07:29 01:11:26 22° 95° (E) 01:15:22 437.125 CW, 437.150 USB
Oscar 16 02 Aug 01:35:51 01:40:48 45° 100° (E) 01:45:45 437.025 USB, Beacon 2401.1428
JAS-1B 02 Aug 01:49:16 01:55:38 22° 89° (E) 02:01:15 435.800 - 435.900 CW/SSB
ITAMSAT 1 02 Aug 02:06:09 02:10:55 37° 99° (E) 02:15:39 435.822 SSB
Uribyol 2 02 Aug 02:24:10 02:29:17 62° 101° (ESE) 02:34:22 436.500 FM
AO-27 02 Aug 02:26:18 02:31:26 62° 101° (ESE) 02:36:31 436.795 MHz FM
AO-Echo 02 Aug 02:27:14 02:32:10 67° 101° (ESE) 02:36:55 ?
PANSAT 02 Aug 02:42:01 02:45:28 31° 169° (S) 02:48:55 not established
Oscar 19 02 Aug 02:46:06 02:50:48 36° 289° (WNW) 02:55:29 437.125 CW, 437.150 USB
TMSAT-1 02 Aug 02:47:10 02:51:36 27° 96° (E) 02:56:01 436.925 FM
OPAL 02 Aug 02:59:10 03:03:19 28° 67° (ENE) 03:07:28 ?
Gurwin Techsat 1B 02 Aug 03:13:49 03:19:08 73° 102° (ESE) 03:24:25 435.225 FM
Oscar 16 02 Aug 03:16:20 03:19:45 18° 294° (WNW) 03:23:10 437.025 USB, Beacon 2401.1428
KITSAT 1 02 Aug 03:27:13 03:32:30 19° 102° (ESE) 03:37:47 435.175 FM
AO-7 02 Aug 03:30:20 03:35:59 20° 95° (E) 03:41:35 29.400 - 29.500 MHz
JAS-1B 02 Aug 03:38:05 03:46:54 64° 289° (WNW) 03:54:16 435.800 - 435.900 CW/SSB
ITAMSAT 1 02 Aug 03:46:15 03:50:07 22° 293° (WNW) 03:53:59 435.822 SSB
ISS 02 Aug 03:53:47 03:56:23 20° 34° (NE) 03:58:58 145.800 FM
Uribyol 2 02 Aug 04:05:45 04:08:11 13° 296° (WNW) 04:10:36 436.500 FM
AO-27 02 Aug 04:07:55 04:10:21 14° 296° (WNW) 04:12:47 436.795 MHz FM
AO-Echo 02 Aug 04:08:49 04:10:15 11° 297° (WNW) 04:11:41 ?
PANSAT 02 Aug 04:21:43 04:25:21 40° 182° (S) 04:29:00 not established
TMSAT-1 02 Aug 04:26:52 04:31:26 30° 290° (WNW) 04:35:59 436.925 FM
Uosat F 02 Aug 04:28:03 04:32:58 56° 101° (E) 04:37:52 435.120 FM
OPAL 02 Aug 04:37:58 04:42:05 27° 261° (W) 04:46:15 ?
MaSat-1 02 Aug 04:41:20 04:44:51 18° 55° (NE) 04:48:12 437.345 MHz
Gurwin Techsat 1B 02 Aug 04:56:33 04:58:25 12° 297° (WNW) 05:00:17 435.225 FM
KITSAT 1 02 Aug 05:18:57 05:27:02 74° 298° (WNW) 05:35:09 435.175 FM
AO-7 02 Aug 05:21:02 05:29:18 73° 290° (WNW) 05:37:31 29.400 - 29.500 MHz
Hamsat 02 Aug 05:29:29 05:32:21 17° 94° (E) 05:35:13 145.90 MHz
ISS 02 Aug 05:30:05 05:33:09 33° 229° (SW) 05:36:11 145.800 FM
STRAND 1 02 Aug 05:30:13 05:33:58 21° 67° (ENE) 05:37:43 ?
JAS-1B 02 Aug 05:32:46 05:35:18 12° 309° (NW) 05:37:45 435.800 - 435.900 CW/SSB
JAS-2 02 Aug 05:42:24 05:46:17 20° 93° (E) 05:50:00 435.800 - 435.900 CW/SSB, 435.910 FM
Saudisat 1A 02 Aug 05:50:05 05:54:29 74° 117° (ESE) 05:58:54 436.775 MHz
PANSAT 02 Aug 06:01:58 06:05:12 25° 195° (SSW) 06:08:26 not established
Uosat F 02 Aug 06:08:44 06:11:14 14° 295° (WNW) 06:13:44 435.120 FM
MaSat-1 02 Aug 06:17:29 06:22:30 50° 253° (WSW) 06:27:02 437.345 MHz
Hamsat 02 Aug 07:04:29 07:08:20 32° 287° (WNW) 07:12:11 145.90 MHz
STRAND 1 02 Aug 07:08:05 07:12:51 38° 261° (W) 07:17:38 ?
AO-7 02 Aug 07:17:16 07:20:38 13° 307° (NW) 07:23:59 29.400 - 29.500 MHz
KITSAT 1 02 Aug 07:19:18 07:23:50 16° 318° (NW) 07:28:24 435.175 FM
JAS-2 02 Aug 07:26:27 07:31:36 39° 290° (WNW) 07:36:25 435.800 - 435.900 CW/SSB, 435.910 FM
SO-67 02 Aug 07:29:32 07:33:00 71° 101° (E) 07:36:27 435.3500 MHz FM
Saudisat 1A 02 Aug 07:33:18 07:34:33 11° 313° (NW) 07:35:48 436.775 MHz
Sapphire 02 Aug 07:56:50 08:00:46 20° 53° (NE) 08:04:41 437.095 MHz 1200 baud AX-25 AFSK
PCSat 02 Aug 08:28:55 08:34:02 40° 59° (ENE) 08:39:05 145.825 MHz
HO-68 02 Aug 08:40:30 08:46:36 30° 97° (E) 08:52:40 435.675 MHz FM
Sapphire 02 Aug 09:39:13 09:44:26 49° 249° (WSW) 09:49:37 437.095 MHz 1200 baud AX-25 AFSK
UKube-1 02 Aug 09:40:14 09:44:34 68° 102° (ESE) 09:48:52 145.840 MHz, 145.915 MHz
SO-50 02 Aug 09:54:59 09:58:15 20° 110° (ESE) 10:01:33 436.795 FM
PCSat 02 Aug 10:13:02 10:17:07 22° 254° (WSW) 10:21:11 145.825 MHz
Oscar 11 02 Aug 10:20:08 10:24:29 77° 283° (WNW) 10:28:49 145.825 FM, Beacon 2401.500 USB
HO-68 02 Aug 10:27:41 10:34:20 43° 292° (WNW) 10:40:57 435.675 MHz FM
FUNcube-1 02 Aug 10:54:58 10:59:12 87° 284° (WNW) 11:03:30 145.950 - 145.970 MHz USB
UOSAT-12 02 Aug 11:30:07 11:32:13 13° 107° (ESE) 11:34:21 437.025 FM, 437.400 FM
SO-50 02 Aug 11:34:33 11:38:33 32° 305° (NW) 11:42:38 436.795 FM
RS-15 02 Aug 11:51:59 12:02:58 63° 112° (ESE) 12:13:39 29.354 - 29.394 USB, Beacon 29.352 USB
Oscar 19 02 Aug 12:20:47 12:24:33 21° 68° (ENE) 12:28:20 437.125 CW, 437.150 USB
JAS-1B 02 Aug 12:28:47 12:34:17 18° 55° (NE) 12:39:58 435.800 - 435.900 CW/SSB
Oscar 16 02 Aug 12:48:50 12:53:38 43° 72° (ENE) 12:58:27 437.025 USB, Beacon 2401.1428
UOSAT-12 02 Aug 13:07:24 13:11:51 52° 302° (WNW) 13:16:25 437.025 FM, 437.400 FM
KITSAT 1 02 Aug 13:17:34 13:24:18 28° 50° (NE) 13:30:57 435.175 FM
ITAMSAT 1 02 Aug 13:20:08 13:24:53 37° 71° (ENE) 13:29:39 435.822 SSB
AO-Echo 02 Aug 13:35:20 13:40:31 57° 74° (ENE) 13:45:43 ?
Uribyol 2 02 Aug 13:37:53 13:42:59 61° 74° (ENE) 13:48:06 436.500 FM
AO-27 02 Aug 13:40:15 13:45:23 62° 74° (ENE) 13:50:32 436.795 MHz FM
Oscar 19 02 Aug 13:58:54 14:03:36 37° 262° (W) 14:08:20 437.125 CW, 437.150 USB
TMSAT-1 02 Aug 14:04:00 14:08:28 29° 69° (ENE) 14:12:57 436.925 FM
RS-15 02 Aug 14:06:03 14:15:49 35° 312° (NW) 14:25:31 29.354 - 29.394 USB, Beacon 29.352 USB
JAS-1B 02 Aug 14:14:07 14:23:02 78° 73° (ENE) 14:32:56 435.800 - 435.900 CW/SSB
Saudisat 1A 02 Aug 14:21:38 14:24:49 19° 52° (NE) 14:27:57 436.775 MHz
AO-7 02 Aug 14:25:36 14:31:19 21° 57° (ENE) 14:37:02 29.400 - 29.500 MHz
Oscar 16 02 Aug 14:29:45 14:33:07 18° 266° (W) 14:36:30 437.025 USB, Beacon 2401.1428
Gurwin Techsat 1B 02 Aug 14:30:42 14:35:59 76° 75° (ENE) 14:41:18 435.225 FM
